COSMOS 2195

导读

COSMOS 2195是独联体(CIS)于1992年7月1日发射的军用卫星,隶属于苏联/俄罗斯“宇宙”系列卫星。该系列卫星多承担军事侦察、通信或技术试验任务,任务细节长期处于保密状态。作为苏联解体后独联体早期航天活动的一部分,它延续了苏联航天技术体系,体现了当时俄罗斯在空间军事应用领域的技术积累,至今仍在轨道上完成既定任务。

基本信息
目录编号:
22006
目录名称:
COSMOS 2195
国际标识:
1992-036A
轨道中心:
EARTH
卫星名称:
COSMOS 2195
卫星全名:
--
卫星状态:
在轨 (已飞行12490 天)
发射日期:
1992-07-01 UTC
国别 :
俄罗斯(独联体) (CIS)
星等 :
--
该卫星已列入 空间交会检测服务 Space Conjunction Data Service (SCDS) ,当前飞行风险评估等级: 无高风险
轨道信息
数据来源 国际轨道数据
星历时间: 2026-09-11T01:54:55+0800
12小时前
查看轨道信息
半长轴: 7359.11km
偏心率: 0.0037721
轨道倾角: 82.939°
近地点辐角 37.492°
升交点赤经 354.671°
平近点角 71.782°
近地点: 953.213km
远地点: 1008.733km
周期: 104.712分钟
每日圈数: 13.751969
详细信息
使用方式:
暂无
2D轨道图
3D轨道图
轨道高度分析图
轨道倾角分析图
轨道综合分析图
查看轨道综合分析图
与全量物体交会距离演化趋势
与全量物体交会风险概率演化趋势